Location: Unspecified
(0.0000°N, 0.0000°E)
Time: 11:35:44
(UTC+00:00)

COSMOS-2414 - Pass Details

Date: 28 April 2024
Orbit: 908 x 965 km, 83.0° (Epoch: 25 May)

Event Time Altitude Azimuth Distance (km) Brightness Sun altitude
Exits shadow 04:29:56 28° 299° (WNW) 1,628 6.8 -21.2°
Drops below altitude 10° 04:33:38 10° 334° (NNW) 2,583 8.1 -20.3°
Sets 04:36:20 0° 344° (NNW) 3,520 8.9 -19.6°
